Time,TemperatureF,DewpointF,PressureIn,WindDirection,WindDirectionDegrees,WindSpeedMPH,WindSpeedGustMPH,Humidity,HourlyPrecipIn,Conditions,Clouds,dailyrainin,SoftwareType,DateUTC
2013-09-28 00:12:00,51.4,48.9,30.11,SSE,157,0.0,-999.0,91,-99.99,,,0.00,Acu-Link.com,2013-09-28 04:12:00,
2013-09-28 00:27:00,50.9,48.4,30.12,SSE,157,0.0,-999.0,91,-99.99,,,0.00,Acu-Link.com,2013-09-28 04:27:00,
2013-09-28 00:43:00,50.2,47.7,30.12,South,180,0.0,-999.0,91,-99.99,,,0.00,Acu-Link.com,2013-09-28 04:43:00,
2013-09-28 00:58:00,49.5,47.0,30.12,South,180,0.0,-999.0,91,-99.99,,,0.00,Acu-Link.com,2013-09-28 04:58:00,
2013-09-28 01:13:00,49.3,46.8,30.12,South,180,0.0,-999.0,91,-99.99,,,0.00,Acu-Link.com,2013-09-28 05:13:00,
2013-09-28 01:28:00,48.7,46.5,30.12,South,180,0.0,-999.0,92,-99.99,,,0.00,Acu-Link.com,2013-09-28 05:28:00,
2013-09-28 01:43:00,48.4,46.2,30.12,South,180,0.0,-999.0,92,-99.99,,,0.00,Acu-Link.com,2013-09-28 05:43:00,
2013-09-28 01:58:00,47.7,45.5,30.12,South,180,0.0,-999.0,92,-99.99,,,0.00,Acu-Link.com,2013-09-28 05:58:00,
2013-09-28 02:13:00,47.1,44.9,30.13,South,180,0.0,-999.0,92,-99.99,,,0.00,Acu-Link.com,2013-09-28 06:13:00,
2013-09-28 02:28:00,46.6,44.4,30.13,South,180,0.0,-999.0,92,-99.99,,,0.00,Acu-Link.com,2013-09-28 06:28:00,
2013-09-28 02:43:00,46.2,44.3,30.12,South,180,0.0,-999.0,93,-99.99,,,0.00,Acu-Link.com,2013-09-28 06:43:00,
2013-09-28 02:59:00,46.0,44.1,30.12,South,180,0.0,-999.0,93,-99.99,,,0.00,Acu-Link.com,2013-09-28 06:59:00,
2013-09-28 03:14:00,46.0,44.1,30.12,South,180,0.0,-999.0,93,-99.99,,,0.00,Acu-Link.com,2013-09-28 07:14:00,
2013-09-28 03:29:00,46.4,44.5,30.12,South,180,0.0,-999.0,93,-99.99,,,0.00,Acu-Link.com,2013-09-28 07:29:00,
2013-09-28 03:44:00,46.4,44.5,30.12,South,180,0.0,-999.0,93,-99.99,,,0.00,Acu-Link.com,2013-09-28 07:44:00,
2013-09-28 03:59:00,46.4,44.5,30.12,South,180,0.0,-999.0,93,-99.99,,,0.00,Acu-Link.com,2013-09-28 07:59:00,
2013-09-28 04:15:00,46.4,44.5,30.12,South,180,0.0,-999.0,93,-99.99,,,0.00,Acu-Link.com,2013-09-28 08:15:00,
2013-09-28 04:30:00,46.8,44.9,30.12,South,180,0.0,-999.0,93,-99.99,,,0.00,Acu-Link.com,2013-09-28 08:30:00,
2013-09-28 04:46:00,47.7,46.3,30.12,South,180,0.0,-999.0,95,-99.99,,,0.00,Acu-Link.com,2013-09-28 08:46:00,
2013-09-28 05:01:00,48.0,46.9,30.12,South,180,0.0,-999.0,96,-99.99,,,0.00,Acu-Link.com,2013-09-28 09:01:00,
2013-09-28 05:16:00,50.9,50.1,30.13,South,180,0.0,-999.0,97,-99.99,,,0.00,Acu-Link.com,2013-09-28 09:16:00,
2013-09-28 05:32:00,51.3,50.5,30.13,SSE,157,0.0,-999.0,97,-99.99,,,0.00,Acu-Link.com,2013-09-28 09:32:00,
2013-09-28 05:47:00,50.9,50.1,30.13,SSE,157,0.0,-999.0,97,-99.99,,,0.00,Acu-Link.com,2013-09-28 09:47:00,
2013-09-28 06:03:00,50.5,49.7,30.13,SSE,157,0.0,-999.0,97,-99.99,,,0.00,Acu-Link.com,2013-09-28 10:03:00,
2013-09-28 06:18:00,50.4,49.6,30.13,SSE,157,0.0,-999.0,97,-99.99,,,0.00,Acu-Link.com,2013-09-28 10:18:00,
2013-09-28 06:33:00,50.0,49.2,30.13,SSE,157,0.0,-999.0,97,-99.99,,,0.00,Acu-Link.com,2013-09-28 10:33:00,
2013-09-28 06:49:00,49.8,49.0,30.13,SSE,157,0.0,-999.0,97,-99.99,,,0.00,Acu-Link.com,2013-09-28 10:49:00,
2013-09-28 07:04:00,50.0,49.2,30.13,SSE,157,0.0,-999.0,97,-99.99,,,0.00,Acu-Link.com,2013-09-28 11:04:00,
2013-09-28 07:20:00,49.8,49.0,30.12,SSE,157,0.0,-999.0,97,-99.99,,,0.00,Acu-Link.com,2013-09-28 11:20:00,
2013-09-28 07:35:00,49.5,48.7,30.12,SSE,157,0.0,-999.0,97,-99.99,,,0.00,Acu-Link.com,2013-09-28 11:35:00,
2013-09-28 07:50:00,48.2,47.4,30.12,SE,135,0.0,-999.0,97,-99.99,,,0.00,Acu-Link.com,2013-09-28 11:50:00,
2013-09-28 08:05:00,48.2,47.4,30.13,SSE,157,0.0,-999.0,97,-99.99,,,0.00,Acu-Link.com,2013-09-28 12:05:00,
2013-09-28 08:20:00,49.3,48.5,30.13,SE,135,0.0,-999.0,97,-99.99,,,0.00,Acu-Link.com,2013-09-28 12:20:00,
2013-09-28 08:35:00,50.4,49.6,30.13,SE,135,0.0,-999.0,97,-99.99,,,0.00,Acu-Link.com,2013-09-28 12:35:00,
2013-09-28 08:50:00,53.4,52.8,30.13,SE,135,0.0,-999.0,98,-99.99,,,0.00,Acu-Link.com,2013-09-28 12:50:00,
2013-09-28 09:05:00,56.8,56.2,30.12,SSE,157,0.0,-999.0,98,-99.99,,,0.00,Acu-Link.com,2013-09-28 13:05:00,
2013-09-28 09:21:00,59.0,58.4,30.12,SSE,157,0.0,-999.0,98,-99.99,,,0.00,Acu-Link.com,2013-09-28 13:21:00,
2013-09-28 09:36:00,60.3,59.7,30.13,South,180,2.7,-999.0,98,-99.99,,,0.00,Acu-Link.com,2013-09-28 13:36:00,
2013-09-28 09:51:00,62.8,60.1,30.13,South,180,1.7,-999.0,91,-99.99,,,0.00,Acu-Link.com,2013-09-28 13:51:00,
2013-09-28 10:06:00,64.6,60.6,30.13,SSE,157,1.7,-999.0,87,-99.99,,,0.00,Acu-Link.com,2013-09-28 14:06:00,
2013-09-28 10:21:00,66.4,60.7,30.13,SSW,202,3.2,-999.0,82,-99.99,,,0.00,Acu-Link.com,2013-09-28 14:21:00,
2013-09-28 10:36:00,68.2,60.7,30.12,SSE,157,0.0,-999.0,77,-99.99,,,0.00,Acu-Link.com,2013-09-28 14:36:00,
2013-09-28 10:51:00,69.6,60.6,30.13,SSW,202,1.7,-999.0,73,-99.99,,,0.00,Acu-Link.com,2013-09-28 14:51:00,
2013-09-28 11:06:00,71.4,60.7,30.12,South,180,2.7,-999.0,69,-99.99,,,0.00,Acu-Link.com,2013-09-28 15:06:00,
2013-09-28 11:21:00,71.6,60.0,30.12,SSE,157,4.2,-999.0,67,-99.99,,,0.00,Acu-Link.com,2013-09-28 15:21:00,
2013-09-28 11:37:00,72.9,60.0,30.11,South,180,3.7,-999.0,64,-99.99,,,0.00,Acu-Link.com,2013-09-28 15:37:00,
2013-09-28 11:52:00,73.9,60.0,30.10,SW,225,4.7,-999.0,62,-99.99,,,0.00,Acu-Link.com,2013-09-28 15:52:00,
2013-09-28 12:07:00,75.0,59.2,30.09,South,180,7.3,-999.0,58,-99.99,,,0.00,Acu-Link.com,2013-09-28 16:07:00,
2013-09-28 12:22:00,75.6,59.3,30.08,SSW,202,3.2,-999.0,57,-99.99,,,0.00,Acu-Link.com,2013-09-28 16:22:00,
2013-09-28 12:37:00,75.7,58.4,30.08,SSW,202,4.7,-999.0,55,-99.99,,,0.00,Acu-Link.com,2013-09-28 16:37:00,
2013-09-28 12:52:00,77.2,58.2,30.07,ESE,112,5.3,-999.0,52,-99.99,,,0.00,Acu-Link.com,2013-09-28 16:52:00,
2013-09-28 13:07:00,77.9,58.8,30.06,South,180,2.7,-999.0,52,-99.99,,,0.00,Acu-Link.com,2013-09-28 17:07:00,
2013-09-28 13:22:00,77.7,57.6,30.05,ESE,112,3.7,-999.0,50,-99.99,,,0.00,Acu-Link.com,2013-09-28 17:22:00,
2013-09-28 13:37:00,78.6,57.8,30.04,South,180,3.2,-999.0,49,-99.99,,,0.00,Acu-Link.com,2013-09-28 17:37:00,
2013-09-28 13:53:00,77.7,57.0,30.03,SSE,157,3.7,-999.0,49,-99.99,,,0.00,Acu-Link.com,2013-09-28 17:53:00,
2013-09-28 14:08:00,79.0,58.2,30.03,NW,315,1.7,-999.0,49,-99.99,,,0.00,Acu-Link.com,2013-09-28 18:08:00,
2013-09-28 14:23:00,78.6,57.2,30.02,SSE,157,4.7,-999.0,48,-99.99,,,0.00,Acu-Link.com,2013-09-28 18:23:00,
2013-09-28 14:38:00,79.5,55.7,30.01,East,90,7.3,-999.0,44,-99.99,,,0.00,Acu-Link.com,2013-09-28 18:38:00,
2013-09-28 14:53:00,78.8,56.2,30.00,West,270,4.7,-999.0,46,-99.99,,,0.00,Acu-Link.com,2013-09-28 18:53:00,
2013-09-28 15:08:00,79.9,57.2,29.99,West,270,2.7,-999.0,46,-99.99,,,0.00,Acu-Link.com,2013-09-28 19:08:00,
2013-09-28 15:23:00,79.3,56.1,29.98,South,180,3.2,-999.0,45,-99.99,,,0.00,Acu-Link.com,2013-09-28 19:23:00,
2013-09-28 15:38:00,80.4,55.2,29.98,ESE,112,4.7,-999.0,42,-99.99,,,0.00,Acu-Link.com,2013-09-28 19:38:00,
2013-09-28 16:09:00,79.9,54.7,29.97,SSE,157,4.7,-999.0,42,-99.99,,,0.00,Acu-Link.com,2013-09-28 20:09:00,
2013-09-28 16:24:00,79.3,54.8,29.96,SSE,157,4.7,-999.0,43,-99.99,,,0.00,Acu-Link.com,2013-09-28 20:24:00,
2013-09-28 16:39:00,79.7,55.8,29.96,South,180,2.2,-999.0,44,-99.99,,,0.00,Acu-Link.com,2013-09-28 20:39:00,
2013-09-28 16:54:00,78.4,54.0,29.96,South,180,3.7,-999.0,43,-99.99,,,0.00,Acu-Link.com,2013-09-28 20:54:00,
2013-09-28 17:09:00,78.8,55.6,29.95,South,180,2.2,-999.0,45,-99.99,,,0.00,Acu-Link.com,2013-09-28 21:09:00,
2013-09-28 17:25:00,78.3,55.2,29.95,WNW,292,5.3,-999.0,45,-99.99,,,0.00,Acu-Link.com,2013-09-28 21:25:00,
2013-09-28 17:40:00,77.9,55.4,29.95,West,270,4.7,-999.0,46,-99.99,,,0.00,Acu-Link.com,2013-09-28 21:40:00,
2013-09-28 17:55:00,78.8,55.6,29.95,ESE,112,3.7,-999.0,45,-99.99,,,0.00,Acu-Link.com,2013-09-28 21:55:00,
2013-09-28 18:10:00,75.0,54.5,29.95,SSW,202,8.9,-999.0,49,-99.99,,,0.00,Acu-Link.com,2013-09-28 22:10:00,
2013-09-28 18:25:00,73.4,54.2,29.95,SSE,157,3.7,-999.0,51,-99.99,,,0.00,Acu-Link.com,2013-09-28 22:25:00,
2013-09-28 18:40:00,72.0,53.9,29.96,South,180,1.1,-999.0,53,-99.99,,,0.00,Acu-Link.com,2013-09-28 22:40:00,
2013-09-28 18:55:00,71.2,53.7,29.96,South,180,0.0,-999.0,54,-99.99,,,0.00,Acu-Link.com,2013-09-28 22:55:00,
2013-09-28 19:10:00,69.8,52.9,29.96,South,180,1.1,-999.0,55,-99.99,,,0.00,Acu-Link.com,2013-09-28 23:10:00,
2013-09-28 19:26:00,68.4,52.6,29.95,ESE,112,1.7,-999.0,57,-99.99,,,0.00,Acu-Link.com,2013-09-28 23:26:00,
2013-09-28 19:41:00,66.6,52.7,29.96,South,180,0.0,-999.0,61,-99.99,,,0.00,Acu-Link.com,2013-09-28 23:41:00,
2013-09-28 19:56:00,64.8,52.3,29.96,South,180,0.0,-999.0,64,-99.99,,,0.00,Acu-Link.com,2013-09-28 23:56:00,
2013-09-28 20:11:00,63.7,52.1,29.96,South,180,0.0,-999.0,66,-99.99,,,0.00,Acu-Link.com,2013-09-29 00:11:00,
2013-09-28 20:26:00,62.6,51.9,29.96,SE,135,0.0,-999.0,68,-99.99,,,0.00,Acu-Link.com,2013-09-29 00:26:00,
2013-09-28 20:41:00,61.9,52.0,29.96,SSE,157,0.0,-999.0,70,-99.99,,,0.00,Acu-Link.com,2013-09-29 00:41:00,
2013-09-28 20:56:00,61.2,51.7,29.95,NNE,22,1.1,-999.0,71,-99.99,,,0.00,Acu-Link.com,2013-09-29 00:56:00,
2013-09-28 21:11:00,60.8,52.1,29.95,ESE,112,0.0,-999.0,73,-99.99,,,0.00,Acu-Link.com,2013-09-29 01:11:00,
2013-09-28 21:26:00,60.6,51.9,29.95,SSW,202,0.0,-999.0,73,-99.99,,,0.00,Acu-Link.com,2013-09-29 01:26:00,
2013-09-28 21:42:00,60.1,52.1,29.94,South,180,0.0,-999.0,75,-99.99,,,0.00,Acu-Link.com,2013-09-29 01:42:00,
2013-09-28 21:57:00,59.7,52.1,29.94,ESE,112,1.7,-999.0,76,-99.99,,,0.00,Acu-Link.com,2013-09-29 01:57:00,
2013-09-28 22:12:00,59.2,52.3,29.94,South,180,1.7,-999.0,78,-99.99,,,0.00,Acu-Link.com,2013-09-29 02:12:00,
2013-09-28 22:27:00,58.8,52.3,29.94,South,180,1.7,-999.0,79,-99.99,,,0.00,Acu-Link.com,2013-09-29 02:27:00,
2013-09-28 22:42:00,58.8,53.0,29.93,South,180,2.2,-999.0,81,-99.99,,,0.00,Acu-Link.com,2013-09-29 02:42:00,
2013-09-28 22:57:00,59.5,53.7,29.93,East,90,1.1,-999.0,81,-99.99,,,0.00,Acu-Link.com,2013-09-29 02:57:00,
2013-09-28 23:12:00,59.7,53.9,29.93,South,180,1.1,-999.0,81,-99.99,,,0.00,Acu-Link.com,2013-09-29 03:12:00,
2013-09-28 23:27:00,60.4,54.2,29.93,SSE,157,3.2,-999.0,80,-99.99,,,0.00,Acu-Link.com,2013-09-29 03:27:00,
2013-09-28 23:42:00,61.0,54.4,29.93,South,180,2.7,-999.0,79,-99.99,,,0.00,Acu-Link.com,2013-09-29 03:42:00,
2013-09-28 23:58:00,60.8,54.2,29.93,SW,225,2.2,-999.0,79,-99.99,,,0.00,Acu-Link.com,2013-09-29 03:58:00,